sat.trackr.live / text

‹ back to catalog

STARLINK-30303

NORAD 57677 · 2023-124Q

PAYLOAD ACTIVE UNKNOWN

§ Identity

Operator
Country
US
Launch date
2023-08-22
Launch site
AFWTR
Launch vehicle
Mass (kg)
RCS (m²)

Purposes: comms

External: N2YO · Heavens-Above · Gunter

§ Orbital elements

Epoch: 2026-05-25T04:18:25.104672Z

Period
94.11 min
Inclination
53.1595°
Eccentricity
0.0001143
Mean motion
15.30191900 rev/d
Perigee alt
474.5 km
Apogee alt
476.0 km
Semi-major
6,853.4 km
B*
3.6979e-5
RAAN
211.1903°
Arg perigee
84.9552°
Mean anomaly
275.1579°
Rev number
15,528

§ Raw data

STARLINK-303031 57677U 23124Q   26145.17945723  .00000736  00000+0  36979-4 0  99932 57677  53.1595 211.1903 0001143  84.9552 275.1579 15.30191900155287

JSON: /api/v1/satellites/57677 · /tle

For live sub-satellite position, see the globe view (requires WebGL).

§ Visibility from observer

Set your observer location to see the next 7 days of passes ≥ 10°. The values pass through the URL so the page stays shareable.

No JS? Fill the form by hand. The geolocation button needs JavaScript.